FW5697 Weather Reports


time (UTC)temp
F
wind
direction
speed
knots
gust
knots
rain 1hr
in
rain 24hr
in
rain mn
in
humidity
%
barometer
mb
20260831110035 70 0 0.0 0.0 0.00 0.00 0.00 96 1020.3
20260831104537 70 0 0.0 0.0 0.00 0.00 0.00 96 1020.4
20260831103037 70 0 0.0 0.0 0.00 0.00 0.00 96 1020.2
20260831101537 70 0 0.0 0.0 0.00 0.00 0.00 97 1020.1
20260831100046 70 0 0.0 0.0 0.00 0.00 0.00 96 1020.0
20260831094543 70 0 0.0 0.0 0.00 0.00 0.00 96 1020.0
20260831093049 70 0 0.0 0.0 0.00 0.00 0.00 96 1019.9
20260831091533 70 0 0.0 0.0 0.00 0.00 0.00 96 1019.8
20260831090037 70 0 0.0 0.0 0.00 0.00 0.00 96 1019.8
20260831084533 70 0 0.0 0.0 0.00 0.00 0.00 96 1019.7
20260831083052 71 0 0.0 0.0 0.00 0.00 0.00 96 1019.5
20260831081534 71 0 0.0 0.0 0.00 0.00 0.00 96 1019.4
20260831074533 71 0 0.0 0.0 0.00 0.00 0.00 95 1019.5
20260831073037 71 0 0.0 0.0 0.00 0.00 0.00 95 1019.3
20260831071543 71 0 0.0 0.0 0.00 0.00 0.00 95 1019.1
20260831070037 71 0 0.0 0.0 0.00 0.00 0.00 95 1019.2
20260831064532 72 0 0.0 0.0 0.00 0.00 0.00 95 1019.2
20260831063034 72 0 0.0 0.0 0.00 0.00 0.00 95 1019.2
20260831061536 72 0 0.0 0.0 0.00 0.00 0.00 95 1019.4
20260831060038 72 0 0.0 0.0 0.00 0.00 0.00 95 1019.4
20260831054533 72 0 0.0 0.0 0.00 0.00 0.00 94 1019.3
20260831053053 72 0 0.0 0.0 0.00 0.00 0.00 94 1019.3
20260831051537 72 0 0.0 0.0 0.00 0.00 0.00 94 1019.4
20260831050039 73 0 0.0 0.0 0.00 0.00 0.00 94 1019.4
20260831044626 73 0 0.0 1.7 0.00 0.00 0.00 94 1019.3
20260831043040 73 0 0.0 0.0 0.00 0.00 0.00 93 1019.4
20260831041535 73 0 0.0 0.0 0.00 0.00 0.00 93 1019.5
20260831040035 74 0 0.0 0.0 0.00 0.00 0.00 92 1019.7
20260831034534 74 0 0.0 0.9 0.00 0.00 0.00 92 1019.5
20260831033052 74 0 0.0 0.0 0.00 0.00 0.00 91 1019.7
20260831031537 74 0 0.0 0.0 0.00 0.00 0.00 91 1019.5
20260831030035 75 0 0.0 0.0 0.00 0.00 0.00 90 1019.6
20260831024535 75 0 0.0 0.0 0.00 0.00 0.00 89 1019.6
20260831023035 75 0 0.0 0.0 0.00 0.00 0.00 89 1019.6
20260831021535 76 0 0.0 0.0 0.00 0.00 0.00 87 1019.6
20260831020037 76 0 0.0 0.0 0.00 0.00 0.00 85 1019.6
20260831014537 77 0 0.0 0.0 0.00 0.00 0.00 84 1019.6
20260831013037 77 0 0.0 0.0 0.00 0.00 0.00 83 1019.4
20260831011535 78 0 0.0 0.0 0.00 0.00 0.00 81 1019.1
20260831010054 79 0 0.0 0.9 0.00 0.00 0.00 80 1019.1
20260831004534 80 0 0.0 0.0 0.00 0.00 0.00 80 1019.1
20260831003036 80 0 0.0 0.0 0.00 0.00 0.00 79 1018.8
20260831001538 81 0 0.0 0.0 0.00 0.00 0.00 77 1018.7
20260831000033 83 0 0.0 0.0 0.00 0.00 0.00 76 1018.5
20260830234538 84 0 0.0 0.0 0.00 0.00 0.00 72 1018.4
20260830233040 85 0 0.0 0.0 0.00 0.00 0.00 69 1018.3
20260830231535 86 0 0.0 0.0 0.00 0.00 0.00 67 1018.3
20260830230035 88 0 0.0 0.9 0.00 0.00 0.00 65 1018.2
20260830224534 89 0 0.0 0.0 0.00 0.00 0.00 62 1018.1
20260830223036 91 0 0.0 0.0 0.00 0.00 0.00 60 1018.1
20260830221533 90 0 0.0 1.7 0.00 0.00 0.00 62 1018.1
20260830220033 90 0 0.0 0.9 0.00 0.00 0.00 59 1018.2
20260830214536 91 0 0.0 0.9 0.00 0.00 0.00 58 1018.4
20260830213048 90 0 0.0 1.7 0.00 0.00 0.00 61 1018.4
20260830211535 89 0 0.0 0.9 0.00 0.00 0.00 59 1018.6
20260830210039 89 0 0.0 2.6 0.00 0.00 0.00 62 1018.7
20260830204540 89 0 0.0 2.6 0.00 0.00 0.00 61 1018.6
20260830203035 89 0 0.9 2.6 0.00 0.00 0.00 62 1018.8
20260830201534 88 25 0.0 2.6 0.00 0.00 0.00 63 1018.9
20260830200035 88 0 0.0 1.7 0.00 0.00 0.00 66 1019.2
20260830194536 88 0 0.0 2.6 0.00 0.00 0.00 65 1019.4
20260830193035 87 82 0.0 1.7 0.00 0.00 0.00 66 1019.7
20260830191536 87 46 0.0 1.7 0.00 0.00 0.00 68 1019.8
20260830190036 85 35 0.0 1.7 0.00 0.00 0.00 71 1019.9
20260830184539 87 0 0.0 3.5 0.00 0.00 0.00 68 1020.0
20260830183035 86 0 0.9 2.6 0.00 0.00 0.00 69 1020.2
20260830181540 85 34 0.9 3.5 0.00 0.00 0.00 69 1020.5
20260830180036 83 0 0.0 1.7 0.00 0.00 0.00 76 1020.9
20260830174534 84 36 0.9 3.5 0.00 0.00 0.00 74 1021.1
20260830173034 84 0 0.0 2.6 0.00 0.00 0.00 75 1021.2
20260830171536 83 0 0.0 1.7 0.00 0.00 0.00 77 1021.4
20260830170038 83 0 0.0 2.6 0.00 0.00 0.00 78 1021.7
20260830164534 82 0 0.0 1.7 0.00 0.00 0.00 81 1021.7
20260830163034 82 34 0.0 1.7 0.00 0.00 0.00 79 1021.8
20260830161543 81 107 0.0 1.7 0.00 0.00 0.00 84 1021.9
20260830160037 79 0 0.0 2.6 0.00 0.00 0.00 87 1022.1
20260830154536 78 0 0.0 1.7 0.00 0.00 0.00 89 1022.3
20260830153037 77 0 0.0 2.6 0.00 0.00 0.00 91 1022.3
20260830151536 77 13 0.0 2.6 0.00 0.00 0.00 93 1022.4
20260830150106 76 0 0.0 1.7 0.00 0.00 0.00 94 1022.4
20260830144535 75 41 0.0 1.7 0.00 0.00 0.00 95 1022.4
20260830143041 75 0 0.0 1.7 0.00 0.00 0.00 95 1022.2
20260830141535 74 0 0.0 2.6 0.00 0.00 0.00 95 1022.4
20260830140034 74 0 0.0 1.7 0.00 0.00 0.00 96 1022.3
20260830134539 74 0 0.0 1.7 0.00 0.00 0.00 96 1022.2
20260830133044 74 30 0.0 2.6 0.00 0.00 0.00 97 1022.1
20260830131536 73 0 0.0 2.6 0.00 0.00 0.00 97 1022.0
20260830130036 73 0 0.0 3.5 0.00 0.00 0.00 98 1022.0
20260830124533 72 0 0.0 1.7 0.00 0.00 0.00 98 1021.9
20260830123034 72 0 0.0 0.0 0.00 0.00 0.00 98 1022.0
20260830121547 71 0 0.0 0.0 0.00 0.00 0.00 98 1022.1
20260830120035 71 0 0.0 0.0 0.00 0.00 0.00 98 1021.8
20260830114534 70 0 0.0 0.0 0.00 0.00 0.00 98 1021.6
20260830113032 69 0 0.0 0.0 0.00 0.00 0.00 98 1021.4
20260830111532 69 0 0.0 0.0 0.00 0.00 0.00 97 1021.3